AF2 KADW-KBED

Flight info

Callsign AF2
Flight time 1h 20m
Altitude 9000
Route POLLA AGARD T287 SPEAK/N0390F170 T287 DONIL/N0455F350 LEEAH Q133 JFK Q419 DPK DREEM3
Aircraft B752/M-SDE2E3FGHIJ3J4J7RWXY/LB1

Departure

Time 2026-04-28 21:03
Airport Joint Base Andrews (KADW)

Arrival

Time 2026-04-28 22:24
Airport Laurence G Hanscom Field (KBED)
Time Latitude Longitude Altitude Speed Heading
2026-04-28 20:33 38.80949 -76.87599 271 ft 0 kts
2026-04-28 20:51 38.80948 -76.87599 271 ft 0 kts
2026-04-28 20:52 38.80940 -76.87599 271 ft 2 kts
2026-04-28 20:52 38.80925 -76.87599 271 ft 2 kts
2026-04-28 20:53 38.80897 -76.87603 271 ft 1 kts 46°
2026-04-28 20:53 38.80893 -76.87614 271 ft 0 kts 85°
2026-04-28 20:53 38.80893 -76.87608 271 ft 3 kts 83°
2026-04-28 20:54 38.80894 -76.87553 270 ft 7 kts 90°
2026-04-28 20:54 38.80894 -76.87495 269 ft 4 kts 90°
2026-04-28 20:54 38.80894 -76.87478 269 ft 0 kts 89°
2026-04-28 20:54 38.80894 -76.87476 269 ft 0 kts 89°
2026-04-28 20:58 38.80895 -76.87473 268 ft 1 kts 77°
2026-04-28 20:58 38.80945 -76.87444 268 ft 15 kts 360°
2026-04-28 20:58 38.81057 -76.87445 268 ft 16 kts 359°
2026-04-28 20:59 38.81168 -76.87445 268 ft 15 kts
2026-04-28 20:59 38.81273 -76.87445 268 ft 14 kts 359°
2026-04-28 20:59 38.81372 -76.87446 268 ft 13 kts 360°
2026-04-28 20:59 38.81464 -76.87447 268 ft 12 kts 359°
2026-04-28 21:00 38.81545 -76.87447 269 ft 11 kts 360°
2026-04-28 21:00 38.81627 -76.87447 269 ft 14 kts 360°
2026-04-28 21:00 38.81744 -76.87447 269 ft 18 kts 360°
2026-04-28 21:00 38.81873 -76.87447 271 ft 17 kts 360°
2026-04-28 21:01 38.81990 -76.87448 272 ft 15 kts
2026-04-28 21:01 38.82101 -76.87449 270 ft 16 kts 360°
2026-04-28 21:01 38.82213 -76.87449 270 ft 15 kts 360°
2026-04-28 21:01 38.82277 -76.87435 270 ft 8 kts 29°
2026-04-28 21:02 38.82309 -76.87312 270 ft 19 kts 89°
2026-04-28 21:02 38.82310 -76.87154 270 ft 17 kts 90°
2026-04-28 21:02 38.82287 -76.87077 272 ft 5 kts 143°
2026-04-28 21:02 38.82251 -76.87067 273 ft 7 kts 179°
2026-04-28 21:03 38.82002 -76.87066 274 ft 83 kts 179°
2026-04-28 21:03 38.81100 -76.87065 305 ft 169 kts 179°
2026-04-28 21:03 38.79771 -76.87058 974 ft 208 kts 179°
2026-04-28 21:03 38.78306 -76.86963 2213 ft 219 kts 172°
2026-04-28 21:04 38.77013 -76.86262 3211 ft 203 kts 146°
2026-04-28 21:04 38.76051 -76.84823 3770 ft 226 kts 121°
2026-04-28 21:04 38.75579 -76.82853 4308 ft 247 kts 96°
2026-04-28 21:04 38.75688 -76.80564 4823 ft 265 kts 77°
2026-04-28 21:05 38.76284 -76.78356 5703 ft 268 kts 56°
2026-04-28 21:05 38.77535 -76.76628 6673 ft 272 kts 28°
2026-04-28 21:05 38.79113 -76.75258 7782 ft 282 kts 31°
2026-04-28 21:05 38.80647 -76.73668 8840 ft 294 kts 35°
2026-04-28 21:06 38.82235 -76.71899 9010 ft 306 kts 37°
2026-04-28 21:06 38.83763 -76.70096 8988 ft 292 kts 38°
2026-04-28 21:06 38.85248 -76.68312 9002 ft 292 kts 38°
2026-04-28 21:06 38.86711 -76.66534 9006 ft 293 kts 38°
2026-04-28 21:07 38.88182 -76.64728 9004 ft 293 kts 38°
2026-04-28 21:07 38.89663 -76.62902 9005 ft 293 kts 38°
2026-04-28 21:07 38.91132 -76.61086 9008 ft 293 kts 38°
2026-04-28 21:07 38.92582 -76.59275 9039 ft 294 kts 41°
2026-04-28 21:08 38.93679 -76.57044 9025 ft 302 kts 66°
2026-04-28 21:08 38.94292 -76.54425 9019 ft 306 kts 70°
2026-04-28 21:08 38.94873 -76.51823 9014 ft 306 kts 70°
2026-04-28 21:08 38.95451 -76.49178 9023 ft 305 kts 70°
2026-04-28 21:09 38.96016 -76.46560 9018 ft 305 kts 71°
2026-04-28 21:09 38.96578 -76.43935 9017 ft 305 kts 71°
2026-04-28 21:09 38.97137 -76.41310 9006 ft 305 kts 71°
2026-04-28 21:09 38.97690 -76.38702 9009 ft 305 kts 71°
2026-04-28 21:10 38.98251 -76.36058 9027 ft 306 kts 71°
2026-04-28 21:10 38.98808 -76.33422 9001 ft 305 kts 71°
2026-04-28 21:10 38.99365 -76.30788 9011 ft 306 kts 71°
2026-04-28 21:10 38.99914 -76.28181 9035 ft 307 kts 71°
2026-04-28 21:11 39.00474 -76.25525 8973 ft 307 kts 72°
2026-04-28 21:11 39.01029 -76.22883 9039 ft 304 kts 71°
2026-04-28 21:11 39.01590 -76.20222 9045 ft 310 kts 71°
2026-04-28 21:11 39.02146 -76.17566 8994 ft 306 kts 72°
2026-04-28 21:12 39.02696 -76.14941 9015 ft 308 kts 71°
2026-04-28 21:12 39.03255 -76.12272 9025 ft 309 kts 71°
2026-04-28 21:12 39.03810 -76.09620 9020 ft 308 kts 72°
2026-04-28 21:12 39.04297 -76.06969 9006 ft 307 kts 80°
2026-04-28 21:13 39.04460 -76.04192 9017 ft 312 kts 84°
2026-04-28 21:13 39.04597 -76.01447 9019 ft 309 kts 83°
2026-04-28 21:13 39.04732 -75.98682 9016 ft 309 kts 84°
2026-04-28 21:13 39.04862 -75.95902 9011 ft 310 kts 84°
2026-04-28 21:14 39.04990 -75.93147 9018 ft 309 kts 84°
2026-04-28 21:14 39.05114 -75.90410 9033 ft 310 kts 84°
2026-04-28 21:14 39.05238 -75.87628 9020 ft 311 kts 84°
2026-04-28 21:14 39.05363 -75.84862 9017 ft 311 kts 84°
2026-04-28 21:15 39.05487 -75.82084 9028 ft 310 kts 84°
2026-04-28 21:15 39.05608 -75.79328 9020 ft 309 kts 84°
2026-04-28 21:15 39.05729 -75.76567 9008 ft 311 kts 84°
2026-04-28 21:15 39.05850 -75.73791 9023 ft 310 kts 84°
2026-04-28 21:16 39.05968 -75.71036 9024 ft 311 kts 84°
2026-04-28 21:16 39.06089 -75.68250 9014 ft 311 kts 84°
2026-04-28 21:16 39.06207 -75.65511 9015 ft 310 kts 84°
2026-04-28 21:16 39.06325 -75.62746 9023 ft 310 kts 84°
2026-04-28 21:17 39.06444 -75.59965 9034 ft 311 kts 85°
2026-04-28 21:17 39.06560 -75.57192 9003 ft 309 kts 84°
2026-04-28 21:17 39.06675 -75.54443 9013 ft 311 kts 84°
2026-04-28 21:17 39.06791 -75.51667 8991 ft 308 kts 84°
2026-04-28 21:18 39.06904 -75.48925 9023 ft 312 kts 84°
2026-04-28 21:18 39.07020 -75.46136 9019 ft 310 kts 84°
2026-04-28 21:18 39.07132 -75.43390 9034 ft 309 kts 84°
2026-04-28 21:18 39.07246 -75.40596 9036 ft 311 kts 84°
2026-04-28 21:19 39.07357 -75.37857 9021 ft 308 kts 84°
2026-04-28 21:19 39.07469 -75.35088 9031 ft 308 kts 84°
2026-04-28 21:19 39.07599 -75.32310 9034 ft 310 kts 80°
2026-04-28 21:19 39.08244 -75.29755 9036 ft 300 kts 56°
2026-04-28 21:20 39.09363 -75.27483 9036 ft 303 kts 53°
2026-04-28 21:20 39.10515 -75.25204 9013 ft 298 kts 53°
2026-04-28 21:20 39.11652 -75.22988 9011 ft 299 kts 53°
2026-04-28 21:20 39.12812 -75.20753 9004 ft 299 kts 52°
2026-04-28 21:21 39.13956 -75.18555 9019 ft 298 kts 52°
2026-04-28 21:21 39.15131 -75.16311 9007 ft 299 kts 52°
2026-04-28 21:21 39.16288 -75.14095 9026 ft 300 kts 52°
2026-04-28 21:21 39.17451 -75.11871 9025 ft 300 kts 51°
2026-04-28 21:22 39.18617 -75.09640 9004 ft 297 kts 53°
2026-04-28 21:22 39.19767 -75.07441 9023 ft 297 kts 51°
2026-04-28 21:22 39.20919 -75.05241 9035 ft 299 kts 51°
2026-04-28 21:22 39.22087 -75.03001 9027 ft 298 kts 52°
2026-04-28 21:23 39.23233 -75.00804 9016 ft 298 kts 52°
2026-04-28 21:23 39.24407 -74.98554 9032 ft 300 kts 52°
2026-04-28 21:23 39.25563 -74.96356 9033 ft 298 kts 48°
2026-04-28 21:23 39.27026 -74.94561 9030 ft 289 kts 32°
2026-04-28 21:24 39.28686 -74.93031 9038 ft 290 kts 31°
2026-04-28 21:24 39.30312 -74.91518 9033 ft 289 kts 30°
2026-04-28 21:24 39.31943 -74.90020 9025 ft 290 kts 30°
2026-04-28 21:24 39.33580 -74.88522 9017 ft 288 kts 30°
2026-04-28 21:25 39.35221 -74.87022 9002 ft 290 kts 30°
2026-04-28 21:25 39.36871 -74.85519 9033 ft 289 kts 30°
2026-04-28 21:25 39.38512 -74.84021 9033 ft 290 kts 31°
2026-04-28 21:25 39.40165 -74.82513 9027 ft 290 kts 30°
2026-04-28 21:26 39.41811 -74.81010 9049 ft 290 kts 31°
2026-04-28 21:26 39.43478 -74.79490 9033 ft 292 kts 31°
2026-04-28 21:26 39.45121 -74.77987 9016 ft 291 kts 31°
2026-04-28 21:26 39.46774 -74.76477 9019 ft 291 kts 31°
2026-04-28 21:27 39.48419 -74.74972 9030 ft 290 kts 31°
2026-04-28 21:27 39.50057 -74.73473 9013 ft 289 kts 31°
2026-04-28 21:27 39.51707 -74.71963 9032 ft 291 kts 30°
2026-04-28 21:27 39.53363 -74.70445 9029 ft 291 kts 30°
2026-04-28 21:28 39.55014 -74.68932 9042 ft 292 kts 31°
2026-04-28 21:28 39.56679 -74.67406 9031 ft 291 kts 31°
2026-04-28 21:28 39.58328 -74.65893 9019 ft 291 kts 31°
2026-04-28 21:28 39.59987 -74.64369 9025 ft 291 kts 31°
2026-04-28 21:29 39.61634 -74.62857 9038 ft 294 kts 32°
2026-04-28 21:29 39.63303 -74.61320 9025 ft 294 kts 31°
2026-04-28 21:29 39.64973 -74.59783 9028 ft 292 kts 31°
2026-04-28 21:29 39.66620 -74.58268 9021 ft 293 kts 31°
2026-04-28 21:30 39.68290 -74.56731 9025 ft 292 kts 32°
2026-04-28 21:30 39.69939 -74.55210 9031 ft 294 kts 31°
2026-04-28 21:30 39.71603 -74.53674 9024 ft 294 kts 31°
2026-04-28 21:30 39.73271 -74.52135 9029 ft 293 kts 31°
2026-04-28 21:31 39.74946 -74.50591 9038 ft 293 kts 31°
2026-04-28 21:31 39.76595 -74.49067 9022 ft 294 kts 31°
2026-04-28 21:31 39.78258 -74.47530 9031 ft 295 kts 32°
2026-04-28 21:31 39.79921 -74.45992 9034 ft 292 kts 32°
2026-04-28 21:32 39.81594 -74.44442 9020 ft 294 kts 32°
2026-04-28 21:32 39.83260 -74.42902 9023 ft 295 kts 32°
2026-04-28 21:32 39.84940 -74.41343 9013 ft 295 kts 32°
2026-04-28 21:32 39.86595 -74.39809 9015 ft 293 kts 32°
2026-04-28 21:33 39.88263 -74.38261 9030 ft 296 kts 33°
2026-04-28 21:33 39.89936 -74.36708 9018 ft 293 kts 32°
2026-04-28 21:33 39.91597 -74.35165 9028 ft 294 kts 32°
2026-04-28 21:33 39.93265 -74.33616 9030 ft 295 kts 33°
2026-04-28 21:34 39.94941 -74.32056 9034 ft 294 kts 33°
2026-04-28 21:34 39.96586 -74.30524 9029 ft 295 kts 33°
2026-04-28 21:34 39.98262 -74.28965 9030 ft 295 kts 33°
2026-04-28 21:34 39.99937 -74.27405 9043 ft 297 kts 34°
2026-04-28 21:35 40.01620 -74.25835 9024 ft 293 kts 34°
2026-04-28 21:35 40.03278 -74.24287 9036 ft 296 kts 33°
2026-04-28 21:35 40.04968 -74.22710 9013 ft 297 kts 33°
2026-04-28 21:35 40.06630 -74.21158 9036 ft 294 kts 34°
2026-04-28 21:36 40.08293 -74.19603 9038 ft 298 kts 33°
2026-04-28 21:36 40.09963 -74.18043 9002 ft 293 kts 34°
2026-04-28 21:36 40.11641 -74.16471 9022 ft 295 kts 33°
2026-04-28 21:36 40.13294 -74.14924 9027 ft 293 kts 33°
2026-04-28 21:37 40.14953 -74.13368 9028 ft 295 kts 33°
2026-04-28 21:37 40.16620 -74.11807 9025 ft 292 kts 34°
2026-04-28 21:37 40.18259 -74.10268 9027 ft 294 kts 34°
2026-04-28 21:37 40.19942 -74.08688 9026 ft 296 kts 34°
2026-04-28 21:38 40.21605 -74.07127 9026 ft 295 kts 34°
2026-04-28 21:38 40.23260 -74.05571 9023 ft 295 kts 34°
2026-04-28 21:38 40.24923 -74.04009 9024 ft 293 kts 34°
2026-04-28 21:38 40.26570 -74.02457 9031 ft 293 kts 34°
2026-04-28 21:39 40.28238 -74.00887 9031 ft 293 kts 34°
2026-04-28 21:39 40.29908 -73.99313 9024 ft 295 kts 34°
2026-04-28 21:39 40.31568 -73.97747 9009 ft 296 kts 34°
2026-04-28 21:39 40.33221 -73.96188 9014 ft 292 kts 34°
2026-04-28 21:40 40.34926 -73.94737 9022 ft 292 kts 25°
2026-04-28 21:40 40.36769 -73.93590 9025 ft 294 kts 23°
2026-04-28 21:40 40.38588 -73.92461 9003 ft 290 kts 24°
2026-04-28 21:40 40.40411 -73.91331 9016 ft 290 kts 24°
2026-04-28 21:41 40.42249 -73.90192 9015 ft 291 kts 24°
2026-04-28 21:41 40.44072 -73.89064 9018 ft 290 kts 24°
2026-04-28 21:41 40.45906 -73.87929 9017 ft 291 kts 23°
2026-04-28 21:41 40.47736 -73.86797 9029 ft 294 kts 24°
2026-04-28 21:42 40.49562 -73.85666 9020 ft 291 kts 24°
2026-04-28 21:42 40.51403 -73.84525 9024 ft 292 kts 23°
2026-04-28 21:42 40.53247 -73.83382 9021 ft 292 kts 23°
2026-04-28 21:42 40.55076 -73.82248 9016 ft 291 kts 24°
2026-04-28 21:43 40.56908 -73.81112 9025 ft 291 kts 24°
2026-04-28 21:43 40.58726 -73.79981 9022 ft 292 kts 24°
2026-04-28 21:43 40.60577 -73.78831 9024 ft 292 kts 23°
2026-04-28 21:43 40.62370 -73.77569 9020 ft 293 kts 36°
2026-04-28 21:44 40.63686 -73.75558 9044 ft 296 kts 60°
2026-04-28 21:44 40.64592 -73.73099 9027 ft 295 kts 64°
2026-04-28 21:44 40.65459 -73.70672 9022 ft 295 kts 64°
2026-04-28 21:44 40.66319 -73.68219 9020 ft 294 kts 65°
2026-04-28 21:45 40.67154 -73.65803 9023 ft 295 kts 65°
2026-04-28 21:45 40.68011 -73.63313 9024 ft 295 kts 65°
2026-04-28 21:45 40.68842 -73.60882 9025 ft 294 kts 65°
2026-04-28 21:45 40.69674 -73.58445 9029 ft 294 kts 65°
2026-04-28 21:46 40.70507 -73.55997 9026 ft 292 kts 65°
2026-04-28 21:46 40.71340 -73.53548 9025 ft 294 kts 65°
2026-04-28 21:46 40.72179 -73.51076 9028 ft 296 kts 65°
2026-04-28 21:46 40.73010 -73.48627 9023 ft 292 kts 65°
2026-04-28 21:47 40.73838 -73.46185 9031 ft 294 kts 65°
2026-04-28 21:47 40.74678 -73.43706 9030 ft 293 kts 65°
2026-04-28 21:47 40.75502 -73.41270 9031 ft 294 kts 65°
2026-04-28 21:47 40.76328 -73.38824 9026 ft 291 kts 65°
2026-04-28 21:48 40.77150 -73.36389 9029 ft 294 kts 65°
2026-04-28 21:48 40.77983 -73.33924 9029 ft 295 kts 65°
2026-04-28 21:48 40.78830 -73.31478 9017 ft 290 kts 60°
2026-04-28 21:48 40.80118 -73.29417 9043 ft 292 kts 41°
2026-04-28 21:49 40.81620 -73.27640 9026 ft 291 kts 41°
2026-04-28 21:49 40.83109 -73.25868 9025 ft 289 kts 40°
2026-04-28 21:49 40.84611 -73.24103 9026 ft 291 kts 40°
2026-04-28 21:49 40.86130 -73.22327 9028 ft 291 kts 40°
2026-04-28 21:50 40.87655 -73.20548 9024 ft 292 kts 41°
2026-04-28 21:50 40.89158 -73.18797 9021 ft 290 kts 40°
2026-04-28 21:50 40.90683 -73.17020 9024 ft 293 kts 40°
2026-04-28 21:50 40.92201 -73.15251 9024 ft 292 kts 40°
2026-04-28 21:51 40.93722 -73.13477 9023 ft 291 kts 40°
2026-04-28 21:51 40.95245 -73.11703 9021 ft 290 kts 40°
2026-04-28 21:51 40.96757 -73.09937 9025 ft 291 kts 40°
2026-04-28 21:51 40.98260 -73.08183 9025 ft 290 kts 40°
2026-04-28 21:52 40.99776 -73.06413 9032 ft 289 kts 40°
2026-04-28 21:52 41.01269 -73.04666 9025 ft 290 kts 40°
2026-04-28 21:52 41.02781 -73.02898 9020 ft 289 kts 40°
2026-04-28 21:52 41.04295 -73.01128 9022 ft 289 kts 40°
2026-04-28 21:53 41.05795 -72.99371 9030 ft 289 kts 41°
2026-04-28 21:53 41.07291 -72.97617 9028 ft 290 kts 40°
2026-04-28 21:53 41.08809 -72.95837 9029 ft 291 kts 40°
2026-04-28 21:53 41.10343 -72.94037 9021 ft 290 kts 40°
2026-04-28 21:54 41.11852 -72.92266 9012 ft 289 kts 40°
2026-04-28 21:54 41.13361 -72.90493 9030 ft 291 kts 40°
2026-04-28 21:54 41.14870 -72.88719 9023 ft 290 kts 40°
2026-04-28 21:54 41.16368 -72.86957 9020 ft 289 kts 40°
2026-04-28 21:55 41.17880 -72.85178 9026 ft 288 kts 40°
2026-04-28 21:55 41.19374 -72.83417 9028 ft 290 kts 40°
2026-04-28 21:55 41.20874 -72.81651 9023 ft 288 kts 40°
2026-04-28 21:55 41.22375 -72.79881 9009 ft 287 kts 40°
2026-04-28 21:56 41.23859 -72.78129 9022 ft 287 kts 40°
2026-04-28 21:56 41.25368 -72.76347 9015 ft 286 kts 40°
2026-04-28 21:56 41.26852 -72.74596 9021 ft 287 kts 40°
2026-04-28 21:56 41.28336 -72.72839 9012 ft 288 kts 40°
2026-04-28 21:57 41.29834 -72.71069 9016 ft 287 kts 40°
2026-04-28 21:57 41.31407 -72.69446 9021 ft 286 kts 26°
2026-04-28 21:57 41.33239 -72.68501 9031 ft 286 kts 17°
2026-04-28 21:57 41.35133 -72.67632 9023 ft 284 kts 17°
2026-04-28 21:58 41.36989 -72.66791 9021 ft 283 kts 17°
2026-04-28 21:58 41.38851 -72.65957 9019 ft 284 kts 17°
2026-04-28 21:58 41.40744 -72.65115 9016 ft 284 kts 17°
2026-04-28 21:58 41.42594 -72.64294 9017 ft 283 kts 17°
2026-04-28 21:59 41.44471 -72.63464 9019 ft 282 kts 17°
2026-04-28 21:59 41.46323 -72.62645 9022 ft 282 kts 17°
2026-04-28 21:59 41.48205 -72.61813 9017 ft 283 kts 17°
2026-04-28 22:00 41.51924 -72.60169 9008 ft 283 kts 17°
2026-04-28 22:00 41.53817 -72.59331 9016 ft 284 kts 17°
2026-04-28 22:00 41.55662 -72.58510 9010 ft 283 kts 17°
2026-04-28 22:00 41.57536 -72.57676 9012 ft 284 kts 17°
2026-04-28 22:01 41.59419 -72.56838 9037 ft 284 kts 17°
2026-04-28 22:01 41.61278 -72.56009 9020 ft 283 kts 17°
2026-04-28 22:01 41.63141 -72.55173 8979 ft 281 kts 19°
2026-04-28 22:01 41.64817 -72.53868 9008 ft 283 kts 37°
2026-04-28 22:02 41.66375 -72.52183 9000 ft 286 kts 37°
2026-04-28 22:02 41.67907 -72.50533 9005 ft 282 kts 37°
2026-04-28 22:02 41.69416 -72.48891 9012 ft 283 kts 37°
2026-04-28 22:02 41.70962 -72.47200 9025 ft 284 kts 38°
2026-04-28 22:03 41.72471 -72.45541 9002 ft 284 kts 38°
2026-04-28 22:03 41.73987 -72.43871 8985 ft 282 kts 38°
2026-04-28 22:03 41.75528 -72.42173 9005 ft 286 kts 38°
2026-04-28 22:03 41.77058 -72.40485 9010 ft 285 kts 38°
2026-04-28 22:04 41.78574 -72.38808 9007 ft 284 kts 38°
2026-04-28 22:04 41.80087 -72.37135 9011 ft 285 kts 38°
2026-04-28 22:04 41.81627 -72.35432 9009 ft 284 kts 38°
2026-04-28 22:04 41.83145 -72.33750 9011 ft 282 kts 38°
2026-04-28 22:05 41.84646 -72.32088 9078 ft 282 kts 39°
2026-04-28 22:05 41.86151 -72.30417 9025 ft 281 kts 39°
2026-04-28 22:05 41.87641 -72.28735 8995 ft 279 kts 39°
2026-04-28 22:05 41.89144 -72.27032 9042 ft 282 kts 39°
2026-04-28 22:06 41.90634 -72.25343 9038 ft 281 kts 39°
2026-04-28 22:06 41.92134 -72.23643 8996 ft 280 kts 39°
2026-04-28 22:06 41.93609 -72.21970 9042 ft 284 kts 39°
2026-04-28 22:06 41.95110 -72.20264 9015 ft 282 kts 39°
2026-04-28 22:07 41.96617 -72.18552 9012 ft 283 kts 39°
2026-04-28 22:07 41.98114 -72.16850 9002 ft 283 kts 39°
2026-04-28 22:07 41.99594 -72.15166 8863 ft 275 kts 39°
2026-04-28 22:07 42.01024 -72.13538 8712 ft 266 kts 39°
2026-04-28 22:08 42.02445 -72.11920 8529 ft 268 kts 39°
2026-04-28 22:08 42.03871 -72.10295 8388 ft 268 kts 39°
2026-04-28 22:08 42.05276 -72.08691 8202 ft 266 kts 39°
2026-04-28 22:08 42.06699 -72.07069 8005 ft 266 kts 38°
2026-04-28 22:09 42.08107 -72.05460 7795 ft 266 kts 38°
2026-04-28 22:09 42.09495 -72.03873 7607 ft 265 kts 38°
2026-04-28 22:09 42.10929 -72.02276 7396 ft 265 kts 37°
2026-04-28 22:09 42.12349 -72.00731 7185 ft 264 kts 37°
2026-04-28 22:10 42.13779 -71.99171 6977 ft 264 kts 37°
2026-04-28 22:10 42.15188 -71.97634 6768 ft 261 kts 37°
2026-04-28 22:10 42.16608 -71.96082 6544 ft 260 kts 37°
2026-04-28 22:10 42.18008 -71.94555 6355 ft 261 kts 37°
2026-04-28 22:11 42.19423 -71.93010 6148 ft 261 kts 37°
2026-04-28 22:11 42.20803 -71.91499 5949 ft 258 kts 37°
2026-04-28 22:11 42.22193 -71.89977 5748 ft 257 kts 37°
2026-04-28 22:11 42.23587 -71.88453 5544 ft 255 kts 38°
2026-04-28 22:12 42.24962 -71.86946 5343 ft 255 kts 38°
2026-04-28 22:12 42.26320 -71.85453 5138 ft 252 kts 38°
2026-04-28 22:12 42.27675 -71.83926 4988 ft 252 kts 39°
2026-04-28 22:12 42.29005 -71.82421 4952 ft 250 kts 39°
2026-04-28 22:13 42.30342 -71.80908 4951 ft 250 kts 39°
2026-04-28 22:13 42.31679 -71.79395 4794 ft 253 kts 39°
2026-04-28 22:13 42.33106 -71.78097 4669 ft 243 kts 19°
2026-04-28 22:13 42.34717 -71.77889 4681 ft 227 kts 351°
2026-04-28 22:14 42.36208 -71.78372 4593 ft 214 kts 346°
2026-04-28 22:14 42.37613 -71.78892 4518 ft 211 kts 346°
2026-04-28 22:14 42.39062 -71.79404 4529 ft 218 kts 352°
2026-04-28 22:14 42.40540 -71.79221 4529 ft 216 kts 24°
2026-04-28 22:15 42.41663 -71.77940 4540 ft 209 kts 57°
2026-04-28 22:15 42.42276 -71.76171 4554 ft 209 kts 66°
2026-04-28 22:15 42.42825 -71.74374 4454 ft 212 kts 66°
2026-04-28 22:15 42.43405 -71.72502 3784 ft 217 kts 66°
2026-04-28 22:16 42.43989 -71.70654 3224 ft 211 kts 66°
2026-04-28 22:16 42.44539 -71.68948 3142 ft 186 kts 66°
2026-04-28 22:16 42.45018 -71.67484 3216 ft 157 kts 66°
2026-04-28 22:16 42.45470 -71.66099 3193 ft 167 kts 66°
2026-04-28 22:17 42.45940 -71.64658 3160 ft 165 kts 66°
2026-04-28 22:17 42.46400 -71.63237 3169 ft 164 kts 66°
2026-04-28 22:17 42.46853 -71.61824 3168 ft 158 kts 66°
2026-04-28 22:17 42.47264 -71.60541 3166 ft 146 kts 66°
2026-04-28 22:18 42.47659 -71.59293 3160 ft 143 kts 66°
2026-04-28 22:18 42.48055 -71.58039 3167 ft 145 kts 66°
2026-04-28 22:18 42.48454 -71.56783 3177 ft 144 kts 65°
2026-04-28 22:18 42.48830 -71.55521 3173 ft 145 kts 70°
2026-04-28 22:19 42.49013 -71.54185 3163 ft 144 kts 89°
2026-04-28 22:19 42.48929 -71.52852 3178 ft 146 kts 92°
2026-04-28 22:19 42.48884 -71.51490 3177 ft 144 kts 89°
2026-04-28 22:19 42.48846 -71.50127 3150 ft 145 kts 90°
2026-04-28 22:20 42.48804 -71.48762 2978 ft 144 kts 92°
2026-04-28 22:20 42.48663 -71.47424 2792 ft 143 kts 96°
2026-04-28 22:20 42.48512 -71.46100 2647 ft 140 kts 95°
2026-04-28 22:20 42.48395 -71.44785 2407 ft 142 kts 92°
2026-04-28 22:21 42.48312 -71.43462 2198 ft 139 kts 92°
2026-04-28 22:21 42.48238 -71.42186 1906 ft 134 kts 92°
2026-04-28 22:21 42.48158 -71.40957 1704 ft 130 kts 94°
2026-04-28 22:21 42.48058 -71.39717 1565 ft 133 kts 93°
2026-04-28 22:22 42.47954 -71.38468 1431 ft 132 kts 95°
2026-04-28 22:22 42.47848 -71.37244 1244 ft 130 kts 95°
2026-04-28 22:22 42.47746 -71.36050 1077 ft 129 kts 96°
2026-04-28 22:22 42.47626 -71.34867 880 ft 122 kts 97°
2026-04-28 22:23 42.47527 -71.33689 777 ft 127 kts 97°
2026-04-28 22:23 42.47413 -71.32523 583 ft 138 kts 96°
2026-04-28 22:23 42.47298 -71.31232 348 ft 141 kts 97°
2026-04-28 22:23 42.47174 -71.29929 146 ft 134 kts 97°
2026-04-28 22:24 42.47073 -71.28858 132 ft 81 kts 97°
2026-04-28 22:24 42.47022 -71.28418 129 ft 17 kts 152°
2026-04-28 22:24 42.46947 -71.28448 129 ft 7 kts 215°
2026-04-28 22:24 42.46906 -71.28488 129 ft 7 kts 217°
2026-04-28 22:25 42.46869 -71.28525 129 ft 4 kts 217°
2026-04-28 22:25 42.46836 -71.28554 129 ft 6 kts 206°
2026-04-28 22:25 42.46811 -71.28561 129 ft 4 kts 178°
2026-04-28 22:25 42.46790 -71.28560 129 ft 4 kts 178°
2026-04-28 22:26 42.46754 -71.28550 129 ft 5 kts 160°
2026-04-28 22:26 42.46712 -71.28528 129 ft 6 kts 158°
2026-04-28 22:26 42.46666 -71.28501 129 ft 7 kts 157°
2026-04-28 22:26 42.46618 -71.28474 129 ft 7 kts 157°
2026-04-28 22:27 42.46581 -71.28432 129 ft 6 kts 116°
2026-04-28 22:27 42.46570 -71.28368 129 ft 6 kts 95°
2026-04-28 22:27 42.46565 -71.28323 129 ft 1 kts 98°
2026-04-28 22:27 42.46559 -71.28310 129 ft 4 kts 155°
2026-04-28 22:28 42.46543 -71.28355 129 ft 5 kts 272°
2026-04-28 22:28 42.46544 -71.28382 129 ft 0 kts 276°